Location: Unspecified
(51.0950°N, 12.9690°E)
Time: 13:55:41
(UTC+00:00)

Cosmos 1939 Rocket - Pass Details

Date: 28 October 2021
Orbit: 532 x 582 km, 97.4° (Epoch: 26 November)

Event Time Altitude Azimuth Distance (km) Brightness Sun altitude
Rises 16:41:44 0° 177° (S) 2,720 6.5 -8.8°
Reaches altitude 10° 16:43:53 10° 181° (S) 1,839 5.6 -9.1°
Maximum altitude 16:47:47 55° 260° (W) 684 3.7 -9.7°
Drops below altitude 10° 16:51:48 10° 339° (NNW) 1,884 5.7 -10.3°
Sets 16:54:01 0° 344° (NNW) 2,794 6.5 -10.7°
